This is the latest recevied weather packets stored in our database for station/object WX5HOT. If no packets are shown the sender has not sent any weather packets the latest 10 day(s).
| Time | Temp. | Humidity | Pressure | Rain* | Wind** | Luminosity | Snow |
|---|---|---|---|---|---|---|---|
| 1777311388 | 22.78° C | 91% | 1060.2 hPa | 0 mm | - | 155 W/m² | - |
| 1777311085 | 22.78° C | 92% | 1060.3 hPa | 0 mm | - | 262 W/m² | - |
| 1777310783 | 22.78° C | 92% | 1060.4 hPa | 0 mm | - | 187 W/m² | - |
| 1777310481 | 22.78° C | 92% | 1060.5 hPa | 0 mm | - | 317 W/m² | - |
| 1777310178 | 22.78° C | 92% | 1060.2 hPa | 0 mm | - | 384 W/m² | - |
| 1777309875 | 22.22° C | 94% | 1060.4 hPa | 0 mm | - | 309 W/m² | - |
| 1777309573 | 22.22° C | 94% | 1060.2 hPa | 0 mm | - | 172 W/m² | - |
| 1777309270 | 21.67° C | 97% | 1060.3 hPa | 0 mm | - | 183 W/m² | - |
| 1777308968 | 21.67° C | 99% | 1060.4 hPa | 0 mm | - | 105 W/m² | - |
| 1777308664 | 21.67° C | 99% | 1060.5 hPa | 0 mm | - | 285 W/m² | - |
| 1777308359 | 21.67° C | 99% | 1060.5 hPa | 0 mm | - | 281 W/m² | - |
| 1777308054 | 21.67° C | 99% | 1060.3 hPa | 0 mm | - | 273 W/m² | - |
| 1777307753 | 21.11° C | 99% | 1060.4 hPa | 0 mm | - | 686 W/m² | - |
| 1777307450 | 21.11° C | 99% | 1060.5 hPa | 0 mm | - | 316 W/m² | - |
| 1777307147 | 21.11° C | 99% | 1060.4 hPa | 0 mm | - | 112 W/m² | - |
| 1777306844 | 21.11° C | 99% | 1060.7 hPa | 0 mm | - | 113 W/m² | - |
| 1777306541 | 20.56° C | 99% | 1060.6 hPa | 0 mm | - | 116 W/m² | - |
| 1777306237 | 20.56° C | 99% | 1060.5 hPa | 0 mm | - | 144 W/m² | - |
| 1777305937 | 20.56° C | 99% | 1060.5 hPa | 0 mm | - | 83 W/m² | - |
| 1777305634 | 20.56° C | 99% | 1060.7 hPa | 0 mm | - | 77 W/m² | - |
| 1777305330 | 20.56° C | 99% | 1060.7 hPa | 0 mm | - | 99 W/m² | - |
| 1777305030 | 20.56° C | 99% | 1060.5 hPa | 0 mm | - | 40 W/m² | - |
| 1777304729 | 20.56° C | 99% | 1060.4 hPa | 0 mm | - | 79 W/m² | - |
| 1777304427 | 20.56° C | 99% | 1060.3 hPa | 0 mm | - | 43 W/m² | - |
| 1777304125 | 20.56° C | 99% | 1060.4 hPa | 0 mm | - | 64 W/m² | - |
* Rain latest hour (hover to see other rain measurements)
** Current wind speed in m/s (hover to see current wind gust speed)